[[{"header":{"parameterUnit":"m.s-1","parameterCategory":1,"la1":30.2991,"la2":30.254,"lo1":-89.0895,"lo2":-89.0444,"dy":0.0017,"dx":0.0017,"nx":28,"ny":28,"refTime":"2024-03-15T21:00:00:Z","depth":0,"parameterNumber":2,"parameterNumberName":"U-component_of_WINDS"},"data":[0,0,0,0,0,0,0,0,0,0,0,0,0,0,0,0,0,0,0,0,0,0,0,0,0,0,0,0,0,0,0,0,0,0,0,0,0,0,0,0,0,0,0,0,0,0,0,0,0,0,0,0,0,0,0,0,0,0,-0.7966,-0.7966,0,-0.7941,-0.7941,-0.7941,-0.7819,-0.7816,-0.7814,-0.7811,-0.7789,-0.7791,-0.7793,0,0,0,0,0,0,0,0,0,0,0,0,0,-0.7911,-0.7912,-0.7966,-0.7966,-0.7965,-0.7941,-0.7941,-0.7941,-0.782,-0.7816,-0.7813,-0.7809,-0.7788,-0.7791,-0.7793,0,0,0,0,0,0,0,0,0,0,0,0,0,-0.7916,-0.7913,-0.7966,-0.7902,-0.7896,-0.7941,-0.7941,-0.7941,-0.7821,-0.7816,-0.7812,-0.7808,-0.7788,-0.7791,-0.7794,-0.79,0,0,-0.7803,-0.7805,0,0,0,0,0,0,0,0,-0.7915,-0.7918,-0.7912,-0.7906,-0.79,-0.7879,-0.7913,-0.7927,-0.7822,-0.7849,-0.7811,-0.7806,-0.7823,-0.7823,-0.7828,-0.7899,-0.7898,-0.7804,-0.7806,-0.7807,-0.7808,0,0,0,0,0,0,0,-0.7915,-0.7918,-0.7956,-0.7912,-0.7905,-0.7875,-0.7871,-0.7915,-0.7861,-0.7847,-0.7838,-0.7836,-0.7819,-0.7825,-0.7826,-0.7898,-0.7804,-0.7806,-0.7808,-0.781,-0.8054,-0.8058,0,0,0,0,0,0,-0.7923,-0.7919,-0.7957,-0.7955,-0.7897,-0.788,-0.7875,-0.789,-0.786,-0.7851,-0.784,-0.7831,-0.7822,-0.7823,-0.7825,-0.7947,-0.7807,-0.781,-0.7812,-0.8049,-0.8055,-0.806,0,0,0,0,0,0,-0.7923,-0.7928,-0.7958,-0.7935,-0.7936,-0.7885,-0.7903,-0.7892,-0.7898,-0.7855,-0.7845,-0.7856,-0.7818,-0.7821,-0.7882,-0.7944,-0.7811,-0.7814,-0.8044,-0.8051,-0.8057,-0.8191,0,0,0,0,0,0,-0.7922,-0.7929,-0.7968,-0.7936,-0.7938,-0.8015,-0.7907,-0.7894,-0.7903,-0.7891,-0.7867,-0.7859,-0.7815,-0.7878,-0.7885,-0.7946,-0.7817,-0.8038,-0.8047,-0.8055,-0.8181,-0.8202,-0.822,0,0,0,0,0,-0.792,-0.8008,-0.797,-0.7976,-0.7986,-0.8019,-0.802,-0.7966,-0.7909,-0.7948,-0.792,-0.786,-0.7936,-0.7885,-0.7892,-0.7955,-0.8034,-0.8045,-0.8055,-0.8173,-0.8198,-0.8219,0,0,0,0,0,0,-0.8049,-0.8002,-0.7961,-0.804,-0.8034,-0.7998,-0.8046,-0.7995,-0.8005,-0.7994,-0.7927,-0.7923,-0.7994,-0.7981,-0.7924,-0.8056,-0.7975,-0.7987,-0.8062,-0.8086,-0.8105,-0.8107,-0.7819,0,0,0,0,0,-0.8087,-0.8116,-0.8074,-0.8148,-0.8147,-0.8098,-0.811,-0.8069,-0.806,-0.8058,-0.8034,-0.8029,-0.8051,-0.8068,-0.8086,-0.8179,-0.8172,-0.8226,-0.8245,-0.8261,-0.8273,-0.832,-0.8343,-0.8094,-0.8094,-0.8093,0,0,-0.8165,-0.8143,-0.8166,-0.8174,-0.8164,-0.8197,-0.8096,-0.8136,-0.8159,-0.8064,-0.8119,-0.8103,-0.8092,-0.817,-0.8202,-0.8161,-0.834,-0.8274,-0.8287,-0.829,-0.8333,-0.8357,-0.8378,-0.8101,-0.8099,-0.8098,0,0,-0.8324,-0.831,-0.837,-0.8362,-0.8348,-0.8315,-0.8329,-0.8301,-0.8285,-0.834,-0.8269,-0.8297,-0.8337,-0.8333,-0.8336,-0.8493,-0.8438,-0.8501,-0.8602,-0.8649,-0.8668,-0.8685,-0.8741,-0.8762,-0.8512,-0.8512,-0.8513,0,-0.8423,-0.8469,-0.8408,-0.8451,-0.8457,-0.837,-0.8431,-0.8427,-0.8421,-0.8427,-0.838,-0.8428,-0.8415,-0.849,-0.8528,-0.8534,-0.8548,-0.8503,-0.867,-0.8687,-0.8702,-0.8754,-0.8775,-0.852,-0.8519,-0.8518,-0.8518,0,-0.8591,-0.8624,-0.8674,-0.8668,-0.868,-0.8732,-0.868,-0.8699,-0.8657,-0.8628,-0.8685,-0.8666,-0.8679,-0.8694,-0.8654,-0.8763,-0.8737,-0.8682,-0.8599,-0.8734,-0.8782,-0.8802,-0.8531,-0.8528,-0.8526,-0.8524,0,0,-0.8831,-0.879,-0.881,-0.8806,-0.8784,-0.8809,-0.8857,-0.8868,-0.8885,-0.8884,-0.8923,-0.8959,-0.8907,-0.891,-0.8869,-0.891,-0.9035,-0.8849,-0.8848,-0.8884,-0.9154,-0.9196,-0.922,-0.8999,-0.9002,-0.9005,-0.9155,0,-0.8983,-0.9061,-0.9008,-0.9096,-0.9125,-0.9043,-0.9085,-0.9077,-0.9051,-0.9073,-0.9045,-0.9072,-0.9001,-0.9003,-0.904,-0.9012,-0.9089,-0.9001,-0.9035,-0.9037,-0.904,-0.9245,-0.929,-0.9432,-0.9173,-0.9176,-0.9179,0,-0.917,-0.9175,-0.9266,-0.9237,-0.9247,-0.9286,-0.9291,-0.9313,-0.9302,-0.9281,-0.9285,-0.9233,-0.9279,-0.9197,-0.926,-0.9201,-0.9212,-0.9201,-0.9205,-0.9206,-0.9116,-0.9252,-0.9476,-0.9498,-0.9208,-0.9205,-0.9203,0,-0.9336,-0.9365,-0.9423,-0.9422,-0.939,-0.9419,-0.9408,-0.9392,-0.9402,-0.9408,-0.9413,-0.9425,-0.9431,-0.9442,-0.9395,-0.934,-0.9464,-0.9378,-0.9447,-0.9449,-0.9477,-0.9476,-0.9706,-0.9485,-0.9485,-0.9484,-0.9484,0,-0.951,-0.9569,-0.9496,-0.9532,-0.9595,-0.9534,-0.9598,-0.9578,-0.9565,-0.9596,-0.9526,-0.9557,-0.9492,-0.9517,-0.948,-0.9537,-0.9541,-0.9526,-0.9515,-0.9532,-0.9534,-0.9538,-0.9527,-0.949,-0.9489,-0.9488,-0.9487,0,-0.9706,-0.966,-0.9717,-0.9682,-0.9674,-0.9722,-0.9692,-0.9724,-0.9694,-0.9734,-0.974,-0.9693,-0.9717,-0.9671,-0.9691,-0.9666,-0.9746,-0.972,-0.975,-0.9742,-0.9814,-0.9808,-1.0055,-1.0084,-0.9845,-0.9847,-0.9849,0,-0.982,-0.9863,-0.9832,-0.9846,-0.9838,-0.9863,-0.9873,-0.9814,-0.9827,-0.9817,-0.985,-0.9869,-0.9881,-0.9925,-0.9893,-0.9907,-0.9881,-0.9967,-0.9883,-0.9898,-0.9882,-0.988,-0.9884,-0.9984,-0.9987,-0.999,-0.9992,0,-1.0028,-1.0003,-1.0018,-1.0026,-1.0038,-1.0042,-1.0041,-1.0057,-0.9995,-1.0013,-1.0036,-1.0046,-1.0065,-1.0084,-1.0091,-1.008,-1.0026,-1.0018,-1.0035,-1.0052,-1.0067,-1.006,-0.9796,-1.0013,-1.0011,-1.0009,-1.0008,-1.0007,-1.0186,-1.022,-1.0203,-1.0222,-1.0215,-1.0215,-1.0243,-1.0215,-1.0233,-1.0243,-1.0208,-1.024,-1.0227,-1.0231,-1.0225,-1.025,-1.0212,-1.0237,-1.0243,-1.025,-1.0261,-1.0063,-1.0251,-1.0251,-1.025,-1.0249,-1.0249,0,-1.039,-1.0374,-1.0393,-1.0392,-1.0408,-1.0354,-1.0349,-1.0366,-1.0395,-1.0387,-1.04,-1.0427,-1.0446,-1.0416,-1.0429,-1.0455,-1.0431,-1.0461,-1.0458,-1.0456,-1.0294,-1.0278,-1.048,-1.048,-1.048,-1.048,-1.048,-1.048,-1.0497,-1.0552,-1.0525,-1.0574,-1.0559,-1.0588,-1.059,-1.059,-1.0584,-1.0617,-1.0632,-1.0611,-1.0594,-1.0606,-1.0621,-1.0612,-1.062,-1.0659,-1.0641,-1.049,-1.0468,-1.0446,-1.0431,-1.0661,-1.0662,-1.0801,-1.0802,-1.0803]},{"header":{"parameterUnit":"m.s-1","parameterCategory":1,"la1":30.2991,"la2":30.254,"lo1":-89.0895,"lo2":-89.0444,"dy":0.0017,"dx":0.0017,"nx":28,"ny":28,"refTime":"2024-03-15T21:00:00:Z","depth":0,"parameterNumber":3,"parameterNumberName":"V-component_of_WINDS"},"data":[0,0,0,0,0,0,0,0,0,0,0,0,0,0,0,0,0,0,0,0,0,0,0,0,0,0,0,0,0,0,0,0,0,0,0,0,0,0,0,0,0,0,0,0,0,0,0,0,0,0,0,0,0,0,0,0,0,0,0.3806,0.3807,0,0.3917,0.3919,0.392,0.3996,0.3997,0.3997,0.3998,0.4108,0.4111,0.4113,0,0,0,0,0,0,0,0,0,0,0,0,0,0.3655,0.3658,0.3806,0.3808,0.3809,0.3917,0.3919,0.392,0.3996,0.3997,0.3997,0.3998,0.4107,0.411,0.4113,0,0,0,0,0,0,0,0,0,0,0,0,0,0.3739,0.3659,0.3806,0.386,0.3866,0.3917,0.3919,0.3921,0.3996,0.3997,0.3997,0.3998,0.4106,0.411,0.4114,0.4119,0,0,0.4125,0.4126,0,0,0,0,0,0,0,0,0.3734,0.3744,0.3851,0.3856,0.3863,0.3944,0.3906,0.3987,0.3995,0.3946,0.3998,0.3999,0.4053,0.4061,0.408,0.4124,0.4129,0.4125,0.4127,0.4129,0.413,0,0,0,0,0,0,0,0.3728,0.374,0.385,0.3852,0.386,0.3877,0.389,0.3922,0.3993,0.3951,0.3956,0.3969,0.4056,0.4076,0.4083,0.413,0.4125,0.4128,0.413,0.4132,0.4183,0.4182,0,0,0,0,0,0,0.3715,0.3735,0.3847,0.3853,0.3799,0.3879,0.3893,0.3917,0.3993,0.4006,0.3968,0.3972,0.4069,0.4078,0.4087,0.4097,0.4129,0.4132,0.4134,0.4184,0.4183,0.4182,0,0,0,0,0,0,0.3711,0.3724,0.3842,0.3796,0.3812,0.3881,0.3906,0.3919,0.3939,0.4006,0.4019,0.3975,0.407,0.4082,0.411,0.4102,0.4134,0.4137,0.4185,0.4183,0.4182,0.4119,0,0,0,0,0,0,0.3706,0.3722,0.3726,0.3795,0.3814,0.3865,0.3906,0.392,0.3945,0.3951,0.4016,0.4028,0.4072,0.4104,0.4114,0.4108,0.414,0.4186,0.4184,0.4183,0.4122,0.4115,0.411,0,0,0,0,0,0.3701,0.3703,0.3726,0.3739,0.3821,0.3864,0.3875,0.3926,0.3944,0.3948,0.3991,0.4026,0.4101,0.4107,0.4118,0.4113,0.4186,0.4185,0.4183,0.4124,0.4117,0.411,0,0,0,0,0,0,0.3631,0.3713,0.3739,0.3765,0.3807,0.3877,0.3883,0.3917,0.3954,0.3958,0.4019,0.4033,0.4055,0.4087,0.4091,0.4121,0.4148,0.4148,0.41,0.4093,0.4087,0.4079,0.4143,0,0,0,0,0,0.3618,0.3648,0.3718,0.3733,0.3753,0.3814,0.3835,0.3871,0.3917,0.3935,0.398,0.4022,0.4055,0.4076,0.411,0.4126,0.4141,0.4128,0.4122,0.4117,0.4117,0.4126,0.4121,0.4176,0.4176,0.4176,0,0,0.3593,0.3642,0.3657,0.372,0.3758,0.3785,0.3829,0.3857,0.3878,0.3939,0.3969,0.4003,0.4053,0.4075,0.4087,0.4103,0.4105,0.4115,0.411,0.4113,0.4124,0.4119,0.4114,0.4175,0.4175,0.4175,0,0,0.3561,0.3601,0.3618,0.3654,0.3709,0.375,0.3753,0.3818,0.3843,0.3874,0.392,0.3945,0.4001,0.4035,0.406,0.4038,0.4071,0.4047,0.4017,0.4025,0.4021,0.4018,0.4009,0.4006,0.4047,0.4046,0.4046,0,0.3522,0.3567,0.3622,0.3647,0.3673,0.373,0.3746,0.3778,0.3841,0.3857,0.3874,0.3944,0.3983,0.4013,0.4007,0.4026,0.4031,0.4041,0.4017,0.4014,0.4012,0.4005,0.4001,0.4043,0.4044,0.4044,0.4044,0,0.3516,0.3546,0.3553,0.3613,0.364,0.366,0.3717,0.3737,0.377,0.3807,0.3837,0.3885,0.3929,0.3939,0.3971,0.3973,0.3981,0.4006,0.4035,0.4003,0.3997,0.3994,0.4038,0.404,0.4041,0.4041,0,0,0.3445,0.3534,0.3536,0.3563,0.3627,0.3651,0.3673,0.3717,0.3733,0.3773,0.3793,0.3838,0.3862,0.3889,0.3925,0.3933,0.3912,0.3958,0.396,0.3947,0.3916,0.3896,0.3892,0.3934,0.3933,0.3933,0.3911,0,0.3423,0.3467,0.3516,0.3542,0.357,0.3623,0.3642,0.3682,0.3718,0.3745,0.3784,0.3815,0.3844,0.3861,0.3871,0.3912,0.3906,0.3914,0.3951,0.3952,0.3937,0.3889,0.3869,0.3847,0.3909,0.3909,0.3909,0,0.3403,0.3442,0.3471,0.3531,0.3545,0.3561,0.3605,0.3631,0.3677,0.3702,0.3732,0.377,0.3794,0.3819,0.3852,0.3857,0.3874,0.3896,0.3897,0.3902,0.3929,0.3894,0.3841,0.3837,0.3906,0.3906,0.3906,0,0.3348,0.3407,0.3432,0.3453,0.3525,0.3535,0.3564,0.3612,0.3634,0.3672,0.3687,0.3726,0.3747,0.3776,0.3823,0.3837,0.3851,0.388,0.3872,0.387,0.3873,0.3872,0.3822,0.3884,0.3884,0.3884,0.3884,0,0.3318,0.3334,0.3408,0.3423,0.3441,0.3496,0.3513,0.3547,0.3588,0.361,0.3657,0.3677,0.3738,0.3764,0.38,0.3822,0.3831,0.3851,0.3861,0.3847,0.3845,0.386,0.3863,0.3883,0.3883,0.3883,0.3884,0,0.326,0.331,0.3341,0.3405,0.3421,0.3432,0.3486,0.3502,0.354,0.3567,0.3576,0.3634,0.3667,0.3717,0.3764,0.3789,0.3804,0.382,0.3789,0.3795,0.3784,0.3784,0.3742,0.3739,0.3802,0.3801,0.3801,0,0.3238,0.3251,0.3316,0.3335,0.3363,0.3392,0.3415,0.3469,0.3491,0.3543,0.3553,0.3589,0.3622,0.3671,0.3717,0.3753,0.377,0.3753,0.3776,0.3761,0.377,0.3768,0.3769,0.3747,0.3746,0.3746,0.3745,0,0.3193,0.3217,0.3249,0.3289,0.3316,0.335,0.3387,0.3399,0.346,0.3482,0.3516,0.3541,0.3589,0.3625,0.3667,0.3696,0.373,0.3737,0.3737,0.3724,0.3705,0.3715,0.3774,0.3738,0.3739,0.3739,0.374,0.374,0.3152,0.3166,0.3214,0.3248,0.3281,0.3313,0.3331,0.337,0.34,0.3444,0.3474,0.3506,0.355,0.361,0.3637,0.3663,0.3677,0.3677,0.3678,0.3677,0.3671,0.37,0.367,0.3671,0.3671,0.3671,0.3671,0,0.311,0.3143,0.3173,0.3223,0.3249,0.3279,0.332,0.334,0.3368,0.3406,0.3437,0.3475,0.3509,0.3557,0.3594,0.3605,0.3621,0.3613,0.3613,0.3619,0.3656,0.3653,0.3599,0.3599,0.3599,0.3599,0.3599,0.3599,0.3091,0.3115,0.3144,0.3185,0.3218,0.325,0.3271,0.3301,0.3332,0.3373,0.3401,0.3432,0.3474,0.3514,0.3546,0.3559,0.3571,0.3557,0.3575,0.3609,0.3616,0.3622,0.3619,0.3559,0.3559,0.3535,0.3535,0.3535]}]]